WEATHER DATA

TODAY
Time Temp. Dewp. Hum. Bar.
00:08 1.3 -6.9 51 1025.2
00:17 1.2 -6.7 52 1025.1
00:28 1.1 -6.8 52 1025
00:38 0.9 -6.7 53 1024.9
00:48 0.8 -7 52 1024.9
00:58 0.7 -6.9 53 1024.8
01:08 0.5 -7.1 53 1024.9
01:18 0.5 -7.1 53 1024.8
01:38 0.3 -7.2 53 1024.8
01:49 0.2 -7.3 53 1024.8
01:58 0.1 -7.4 53 1024.6
02:08 0 -7.3 54 1024.5
02:19 0 -6.9 56 1024.6
02:38 -0.1 -6.4 59 1024.3
02:49 -0.1 -5.8 62 1024.3
02:59 -0.1 -5.6 63 1024.2
03:09 -0.2 -5.3 65 1024.2
03:19 -0.2 -4.8 68 1024
03:29 -0.3 -4.7 69 1023.8
03:39 -0.4 -4.5 71 1023.7
03:49 -0.4 -4.2 73 1023.5
03:58 -0.4 -4 74 1023.4
04:10 -0.4 -3.7 76 1023.1
04:18 -0.4 -3.7 76 1023.1
04:29 -0.4 -3.5 77 1023
04:40 -0.3 -3.3 78 1023
04:50 -0.1 -2.9 79 1023
04:59 0 -2.7 80 1023
05:10 0.1 -2.6 80 1023
05:20 0.2 -2.7 79 1023
05:30 0.3 -2.6 79 1022.9
05:39 0.3 -2.6 79 1022.8
05:51 0.4 -2.5 79 1022.7
06:00 0.4 -2.5 79 1022.7
06:10 0.4 -2.5 79 1022.7
06:20 0.5 -2.4 79 1022.7
06:31 0.6 -2.2 80 1022.5
06:41 0.6 -2.2 80 1022.5
06:50 0.6 -2.2 80 1022.4
07:01 0.6 -2.2 80 1022.3
07:10 0.6 -2 81 1022.2
07:21 0.7 -1.9 81 1022.1
07:31 0.8 -1.8 81 1022.1
07:41 0.9 -1.8 81 1022.1
07:51 1 -1.7 81 1022.1
08:01 1 -1.7 81 1022
08:11 1 -1.7 81 1021.9
08:20 1.1 -1.6 81 1021.8
08:31 1.1 -1.6 81 1021.6
08:41 1.2 -1.3 82 1021.5
08:52 1.3 -1.3 82 1021.4
09:01 1.4 -1 83 1021.2
09:11 1.6 -0.9 83 1021.2
09:32 1.8 -0.7 83 1021
09:42 1.9 -0.6 83 1021
09:52 2.1 -0.3 84 1020.8
10:02 2.2 -0.3 83 1020.8
10:12 2.4 -0.2 83 1020.8
10:21 2.5 -0.1 83 1020.7
10:33 2.6 -0.1 82 1020.5
10:43 2.6 -0.1 82 1020.4
10:52 2.6 -0.1 82 1020.3
11:02 2.7 -0.1 82 1020
11:13 2.7 -0.1 82 1019.9
11:23 2.8 0 82 1019.6
11:33 3 0.2 82 1019.5
11:43 3.1 0.3 82 1019.4
11:53 3.2 0.3 81 1019.2
12:03 3.2 0.3 81 1019.1
12:13 3.2 0.3 81 1018.9
12:23 3.2 0.3 81 1018.8

DAY STATISTIC

2018-11-19
TEMPERATURE
AVERAGE
1.0
HIGH
3.2
11:53
LOW
-0.4
03:39
PRESSURE
AVERAGE
1022.4
HIGH
1025.2
00:08
LOW
1018.8
12:23
DEWPOINT
AVERAGE
-2.9
HIGH
0.3
11:43
LOW
-7.4
01:58
HUMIDITY
AVERAGE
74
HIGH
84
09:52
LOW
51
00:08
TEMPERATURE (°C)
LOW
-0.4
HIGH
3.2
AVERAGE
1.0
PRESSURE (hpa)
LOW
1018.8
HIGH
1025.2
AVERAGE
1022.4
DEVICE